[[{"header":{"parameterUnit":"m.s-1","parameterCategory":1,"la1":30.2991,"la2":30.254,"lo1":-89.0895,"lo2":-89.0444,"dy":0.0017,"dx":0.0017,"nx":28,"ny":28,"refTime":"2024-04-11T03:00:00:Z","depth":0,"parameterNumber":2,"parameterNumberName":"U-component_of_WINDS"},"data":[0,0,0,0,0,0,0,0,0,0,0,0,0,0,0,0,0,0,0,0,0,0,0,0,0,0,0,0,0,0,0,0,0,0,0,0,0,0,0,0,0,0,0,0,0,0,0,0,0,0,0,0,0,0,0,0,0,0,2.0157,2.0157,0,2.0221,2.0222,2.0222,2.0201,2.02,2.0199,2.0197,2.0264,2.0267,2.027,0,0,0,0,0,0,0,0,0,0,0,0,0,2.0019,2.0021,2.0157,2.0157,2.0158,2.0221,2.0222,2.0222,2.0202,2.02,2.0198,2.0197,2.0263,2.0267,2.027,0,0,0,0,0,0,0,0,0,0,0,0,0,2.008,2.0022,2.0157,2.0155,2.0156,2.0221,2.0222,2.0223,2.0202,2.02,2.0198,2.0196,2.0262,2.0266,2.0271,2.0341,0,0,2.0285,2.0287,0,0,0,0,0,0,0,0,2.0077,2.0085,2.0155,2.0156,2.0156,2.0201,2.0197,2.0262,2.0203,2.0185,2.0197,2.0195,2.0245,2.0251,2.0267,2.0344,2.0347,2.0285,2.0288,2.029,2.0291,0,0,0,0,0,0,0,2.0072,2.0082,2.0182,2.0156,2.0157,2.0152,2.0159,2.021,2.0226,2.0186,2.0185,2.0192,2.0245,2.0263,2.0269,2.0348,2.0285,2.0289,2.0292,2.0294,2.0488,2.049,0,0,0,0,0,0,2.0067,2.0079,2.018,2.0184,2.0111,2.0157,2.0164,2.0189,2.0225,2.0228,2.0194,2.0191,2.0256,2.0263,2.0271,2.0357,2.029,2.0294,2.0297,2.0485,2.0488,2.0491,0,0,0,0,0,0,2.0065,2.0077,2.0177,2.0131,2.0144,2.0161,2.0189,2.0191,2.0209,2.0231,2.0234,2.021,2.0255,2.0265,2.0324,2.0359,2.0296,2.0301,2.0482,2.0486,2.0489,2.0528,0,0,0,0,0,0,2.0061,2.0076,2.0102,2.0132,2.0146,2.0229,2.0191,2.0194,2.0217,2.0214,2.0246,2.025,2.0254,2.0317,2.0329,2.0364,2.0304,2.0479,2.0484,2.0488,2.0524,2.0533,2.054,0,0,0,0,0,2.0056,2.011,2.0103,2.0116,2.0179,2.0231,2.0239,2.0242,2.022,2.0247,2.0261,2.0249,2.0353,2.0324,2.0336,2.0374,2.0477,2.0483,2.0488,2.052,2.0531,2.054,0,0,0,0,0,0,2.0083,2.0114,2.0107,2.0172,2.0199,2.0227,2.0261,2.0253,2.0287,2.0283,2.0286,2.0294,2.0355,2.037,2.0337,2.0444,2.0412,2.042,2.0432,2.0443,2.0451,2.0446,2.0308,0,0,0,0,0,2.0097,2.0136,2.016,2.0216,2.023,2.0243,2.0266,2.0266,2.0295,2.0306,2.0325,2.0353,2.0392,2.0418,2.0455,2.0526,2.0534,2.0558,2.0566,2.0573,2.058,2.0621,2.0632,2.0508,2.0508,2.0508,0,0,2.0125,2.0147,2.0171,2.0222,2.0243,2.0284,2.0253,2.0297,2.0328,2.0313,2.037,2.0385,2.0417,2.0483,2.0513,2.0498,2.0616,2.058,2.0585,2.0588,2.0627,2.0639,2.0649,2.0512,2.0511,2.0511,0,0,2.0199,2.0218,2.0268,2.029,2.0322,2.0331,2.0343,2.0373,2.0382,2.044,2.043,2.0467,2.0534,2.0558,2.0579,2.0664,2.0654,2.0676,2.0719,2.0758,2.0768,2.0777,2.0809,2.082,2.0683,2.0683,2.0683,0,2.023,2.0292,2.0294,2.034,2.0363,2.0351,2.0402,2.0423,2.0466,2.0483,2.0465,2.0551,2.0571,2.0644,2.0665,2.0681,2.0696,2.0672,2.0766,2.0775,2.0783,2.0814,2.0826,2.0686,2.0685,2.0685,2.0685,0,2.033,2.0373,2.0408,2.0451,2.0478,2.0526,2.0537,2.0565,2.0563,2.0574,2.0635,2.0659,2.0702,2.0719,2.0718,2.0792,2.0782,2.0765,2.0733,2.0798,2.0826,2.0838,2.0689,2.0688,2.0688,2.0687,0,0,2.0422,2.0466,2.0479,2.0499,2.0535,2.0568,2.0617,2.0659,2.0683,2.0714,2.0755,2.0814,2.0799,2.0823,2.0824,2.0859,2.0927,2.0838,2.0839,2.0855,2.1012,2.1026,2.1039,2.092,2.0923,2.0924,2.101,0,2.0499,2.0584,2.0588,2.0665,2.0706,2.0696,2.0739,2.0766,2.0778,2.0815,2.0828,2.087,2.0847,2.0862,2.0895,2.0911,2.0959,2.0905,2.0961,2.0962,2.0954,2.1054,2.1067,2.1147,2.1021,2.1023,2.1024,0,2.06,2.0635,2.0716,2.0748,2.0765,2.0803,2.0844,2.0878,2.091,2.0916,2.0944,2.0941,2.0992,2.0958,2.1029,2.0993,2.1016,2.1027,2.1031,2.1037,2.0998,2.1064,2.1172,2.1185,2.1042,2.104,2.1039,0,2.0661,2.0728,2.0786,2.0803,2.0841,2.0868,2.0886,2.0915,2.0941,2.0976,2.0993,2.1034,2.1056,2.1088,2.1097,2.1071,2.1169,2.1135,2.1177,2.1177,2.1199,2.1198,2.1314,2.1212,2.1212,2.1212,2.1211,0,2.0748,2.0799,2.0814,2.085,2.0907,2.0912,2.0968,2.0984,2.1011,2.105,2.1044,2.1081,2.109,2.1129,2.1137,2.1196,2.1206,2.1213,2.1215,2.1215,2.1214,2.123,2.1226,2.1215,2.1214,2.1213,2.1213,0,2.0826,2.0838,2.09,2.0932,2.0941,2.0982,2.1009,2.1044,2.1056,2.1106,2.1119,2.1137,2.1184,2.1196,2.1251,2.1256,2.1326,2.1322,2.1316,2.1316,2.1358,2.1355,2.149,2.1509,2.1393,2.1394,2.1395,0,2.0881,2.092,2.0956,2.0982,2.1,2.1042,2.1069,2.1076,2.1104,2.1144,2.1174,2.122,2.1257,2.1332,2.1351,2.1394,2.1391,2.1436,2.1398,2.1397,2.1394,2.1392,2.1397,2.1443,2.1445,2.1446,2.1446,0,2.0978,2.0982,2.102,2.1062,2.1094,2.1126,2.1158,2.1179,2.1191,2.1223,2.1271,2.13,2.1357,2.1403,2.1446,2.1465,2.1459,2.1458,2.1471,2.1471,2.1467,2.1471,2.1337,2.1455,2.1454,2.1454,2.1453,2.1453,2.1047,2.1082,2.1113,2.1156,2.1181,2.1211,2.1246,2.1263,2.1302,2.1349,2.1351,2.1403,2.1436,2.1493,2.1515,2.1557,2.1543,2.156,2.1565,2.157,2.1574,2.1459,2.1564,2.1564,2.1564,2.1564,2.1563,0,2.1145,2.1165,2.1205,2.1249,2.1284,2.1274,2.1309,2.1339,2.1385,2.1415,2.1452,2.1508,2.1553,2.1576,2.1622,2.1651,2.1649,2.1662,2.1661,2.1666,2.1583,2.1568,2.1663,2.1663,2.1663,2.1663,2.1663,2.1663,2.12,2.1259,2.1267,2.1339,2.1359,2.141,2.1431,2.1459,2.1484,2.1546,2.1584,2.1599,2.1627,2.1674,2.1716,2.1722,2.174,2.1755,2.1759,2.1681,2.1671,2.1662,2.1648,2.1758,2.1758,2.1839,2.184,2.184]},{"header":{"parameterUnit":"m.s-1","parameterCategory":1,"la1":30.2991,"la2":30.254,"lo1":-89.0895,"lo2":-89.0444,"dy":0.0017,"dx":0.0017,"nx":28,"ny":28,"refTime":"2024-04-11T03:00:00:Z","depth":0,"parameterNumber":3,"parameterNumberName":"V-component_of_WINDS"},"data":[0,0,0,0,0,0,0,0,0,0,0,0,0,0,0,0,0,0,0,0,0,0,0,0,0,0,0,0,0,0,0,0,0,0,0,0,0,0,0,0,0,0,0,0,0,0,0,0,0,0,0,0,0,0,0,0,0,0,-3.7312,-3.7313,0,-3.738,-3.7381,-3.7382,-3.7395,-3.7395,-3.7394,-3.7394,-3.7462,-3.7464,-3.7467,0,0,0,0,0,0,0,0,0,0,0,0,0,-3.7196,-3.7198,-3.7312,-3.7313,-3.7314,-3.738,-3.7381,-3.7382,-3.7395,-3.7395,-3.7394,-3.7393,-3.7461,-3.7464,-3.7467,0,0,0,0,0,0,0,0,0,0,0,0,0,-3.7253,-3.7198,-3.7312,-3.7329,-3.7331,-3.738,-3.7381,-3.7382,-3.7395,-3.7395,-3.7394,-3.7393,-3.746,-3.7464,-3.7467,-3.7504,0,0,-3.7478,-3.7479,0,0,0,0,0,0,0,0,-3.725,-3.7257,-3.7325,-3.7328,-3.733,-3.7378,-3.7365,-3.7423,-3.7396,-3.7371,-3.7394,-3.7393,-3.7435,-3.744,-3.7455,-3.7507,-3.751,-3.7478,-3.748,-3.7482,-3.7483,0,0,0,0,0,0,0,-3.7246,-3.7254,-3.7339,-3.7326,-3.7329,-3.7333,-3.734,-3.7376,-3.7406,-3.7373,-3.7374,-3.7382,-3.7436,-3.7451,-3.7456,-3.7511,-3.7478,-3.7481,-3.7483,-3.7485,-3.76,-3.7601,0,0,0,0,0,0,-3.7239,-3.7251,-3.7337,-3.7341,-3.7287,-3.7336,-3.7344,-3.7364,-3.7406,-3.7412,-3.7383,-3.7382,-3.7446,-3.7452,-3.7459,-3.7507,-3.7482,-3.7485,-3.7487,-3.7599,-3.7601,-3.7602,0,0,0,0,0,0,-3.7236,-3.7246,-3.7334,-3.7296,-3.7308,-3.7339,-3.7361,-3.7365,-3.7381,-3.7413,-3.7419,-3.7393,-3.7445,-3.7454,-3.7493,-3.7509,-3.7486,-3.749,-3.7598,-3.76,-3.7601,-3.7602,0,0,0,0,0,0,-3.7233,-3.7245,-3.7259,-3.7297,-3.731,-3.7367,-3.7362,-3.7367,-3.7387,-3.7387,-3.7424,-3.743,-3.7445,-3.7488,-3.7497,-3.7514,-3.7492,-3.7597,-3.7599,-3.7601,-3.76,-3.7603,-3.7605,0,0,0,0,0,-3.7229,-3.7256,-3.726,-3.727,-3.7328,-3.7368,-3.7376,-3.7394,-3.7388,-3.7403,-3.7424,-3.7428,-3.7506,-3.7492,-3.7502,-3.752,-3.7596,-3.7598,-3.7601,-3.7599,-3.7602,-3.7605,0,0,0,0,0,0,-3.7219,-3.7261,-3.7266,-3.7306,-3.7334,-3.737,-3.7389,-3.7396,-3.7426,-3.7425,-3.7445,-3.7454,-3.7492,-3.751,-3.7494,-3.7559,-3.7551,-3.7555,-3.7546,-3.755,-3.7552,-3.7547,-3.7495,0,0,0,0,0,-3.7222,-3.7251,-3.7286,-3.7318,-3.7332,-3.7358,-3.7376,-3.7388,-3.7417,-3.7429,-3.7453,-3.7481,-3.7512,-3.7532,-3.7562,-3.7603,-3.7612,-3.762,-3.7623,-3.7625,-3.7628,-3.7654,-3.7658,-3.7609,-3.7609,-3.7609,0,0,-3.7227,-3.7254,-3.7271,-3.7317,-3.734,-3.737,-3.7368,-3.7399,-3.7422,-3.7433,-3.7473,-3.7491,-3.7524,-3.7565,-3.7585,-3.7581,-3.7644,-3.7627,-3.7629,-3.7632,-3.7656,-3.7661,-3.7665,-3.7611,-3.761,-3.761,0,0,-3.7254,-3.7276,-3.7307,-3.733,-3.7364,-3.7382,-3.7389,-3.7426,-3.7439,-3.7479,-3.7488,-3.7516,-3.7568,-3.7592,-3.761,-3.7648,-3.7654,-3.7657,-3.767,-3.7694,-3.7698,-3.7702,-3.7717,-3.7722,-3.766,-3.766,-3.766,0,-3.7256,-3.7302,-3.7321,-3.7353,-3.7374,-3.7386,-3.7418,-3.7439,-3.7481,-3.7496,-3.7491,-3.7559,-3.7582,-3.763,-3.7639,-3.7653,-3.7663,-3.7653,-3.7696,-3.77,-3.7704,-3.7718,-3.7723,-3.7661,-3.7661,-3.7661,-3.7661,0,-3.7305,-3.7336,-3.7357,-3.7399,-3.7422,-3.7453,-3.7478,-3.7499,-3.7509,-3.7527,-3.7569,-3.7597,-3.7634,-3.7646,-3.7655,-3.7696,-3.7693,-3.7692,-3.7684,-3.7708,-3.7722,-3.7728,-3.7661,-3.7661,-3.7661,-3.7661,0,0,-3.7326,-3.7379,-3.7387,-3.7407,-3.7447,-3.7472,-3.7504,-3.7541,-3.756,-3.7589,-3.7618,-3.7663,-3.7663,-3.7684,-3.7697,-3.7718,-3.7748,-3.7715,-3.7716,-3.7722,-3.7797,-3.7798,-3.7804,-3.7752,-3.7753,-3.7754,-3.7795,0,-3.7358,-3.7417,-3.7436,-3.7485,-3.7516,-3.7529,-3.7558,-3.7586,-3.7604,-3.7633,-3.7653,-3.7686,-3.7683,-3.7696,-3.7718,-3.774,-3.7764,-3.7737,-3.778,-3.7782,-3.7773,-3.7811,-3.7812,-3.7849,-3.78,-3.7801,-3.7802,0,-3.7403,-3.7434,-3.7487,-3.7525,-3.7539,-3.7564,-3.7601,-3.7628,-3.766,-3.7673,-3.7698,-3.7709,-3.7745,-3.7734,-3.7784,-3.7766,-3.7785,-3.7799,-3.78,-3.7806,-3.7794,-3.7819,-3.7861,-3.7867,-3.781,-3.781,-3.7809,0,-3.7415,-3.7471,-3.751,-3.7526,-3.7571,-3.7589,-3.7609,-3.7641,-3.7662,-3.7694,-3.7709,-3.7744,-3.7764,-3.7791,-3.7812,-3.7802,-3.7861,-3.7852,-3.7873,-3.7873,-3.7885,-3.7884,-3.7932,-3.7895,-3.7895,-3.7895,-3.7895,0,-3.745,-3.7482,-3.7516,-3.7541,-3.7578,-3.7599,-3.7635,-3.7656,-3.7684,-3.7713,-3.7726,-3.7753,-3.7779,-3.7809,-3.7826,-3.7866,-3.7874,-3.7886,-3.789,-3.7886,-3.7884,-3.7899,-3.7897,-3.7897,-3.7896,-3.7896,-3.7896,0,-3.747,-3.7494,-3.7538,-3.7578,-3.7589,-3.7614,-3.7648,-3.7673,-3.7692,-3.7729,-3.7739,-3.777,-3.7807,-3.783,-3.7877,-3.7888,-3.7933,-3.7935,-3.7922,-3.7924,-3.7945,-3.7943,-3.8004,-3.8014,-3.7969,-3.797,-3.797,0,-3.7491,-3.7516,-3.7559,-3.758,-3.76,-3.7633,-3.7655,-3.7678,-3.7701,-3.7742,-3.7762,-3.78,-3.7831,-3.789,-3.7917,-3.7953,-3.7958,-3.7977,-3.7963,-3.7958,-3.796,-3.7959,-3.7962,-3.7979,-3.7979,-3.798,-3.798,0,-3.7526,-3.7537,-3.757,-3.7607,-3.7634,-3.7664,-3.7694,-3.771,-3.7738,-3.7764,-3.7802,-3.7827,-3.7876,-3.7914,-3.7953,-3.7974,-3.7982,-3.7984,-3.7991,-3.7987,-3.7979,-3.7985,-3.7929,-3.7982,-3.7982,-3.7982,-3.7982,-3.7982,-3.7549,-3.7573,-3.7607,-3.7643,-3.7669,-3.7697,-3.7723,-3.7746,-3.7778,-3.782,-3.7832,-3.7872,-3.7906,-3.796,-3.7981,-3.8014,-3.8012,-3.8021,-3.8024,-3.8027,-3.8028,-3.7973,-3.8021,-3.8021,-3.8021,-3.8021,-3.8021,0,-3.7586,-3.7609,-3.7642,-3.7685,-3.7714,-3.7719,-3.7753,-3.7777,-3.7813,-3.7844,-3.7875,-3.7921,-3.7958,-3.7988,-3.8027,-3.8048,-3.8053,-3.8057,-3.8057,-3.8062,-3.8027,-3.8018,-3.8053,-3.8053,-3.8053,-3.8053,-3.8053,-3.8053,-3.7609,-3.765,-3.7666,-3.7721,-3.7744,-3.7784,-3.7804,-3.783,-3.7855,-3.7905,-3.7937,-3.7957,-3.7988,-3.8029,-3.8065,-3.8073,-3.8087,-3.8091,-3.81,-3.8067,-3.8064,-3.806,-3.8052,-3.8094,-3.8094,-3.8132,-3.8133,-3.8133]}]]